www.pogodaiklimat.ru

Погода и климат >> Архив погоды >> Молдова >> Рыбница


ПОГОДА в Рыбнице

  • Прогноз погоды в Рыбнице
  • Монитор погоды в Рыбнице

АРХИВ ПОГОДЫ в Рыбнице

Время (UTC), дата Ветер
(напр.,м/с)
 
Видим.   Явления Облачность Т
(С)
Тd
(С)
f
(%)
Тe
(С)
Тes
(С)
Комфортность P
(гПа)
Po
(гПа)
Тmin
(С)
Tmax
(С)
R
(мм)
R24
(мм)
S
(см)
15 13.09 З 2 20 км 3/3 1000 м
[Cu med, cong]
+28.3 +7.8 27 +28 +28 жарко 1022.4 1008.7
18 13.09 СЗ 1 10 км ясно +22.1 +11.5 51 +24 +24 комфорт 1023.0 1009.0 +30.0
21 13.09 штиль 0 10 км ясно +16.3 +11.3 72 +16 +16 1023.4 1009.2
00 14.09 штиль 0 10 км 8/0
[Ac trans]
+14.1 +10.0 76 +14 +14 1024.0 1009.7
03 14.09 штиль 0 10 км 9/6 600 м
[Cb calv Ac trans]
+14.9 +10.5 75 +15 +15 1023.5 1009.3
06 14.09 штиль 0 20 км 8/0
[Ac trans Ci fib]
+18.7 +11.7 64 +19 +22 1024.1 1010.0 +13.0
09 14.09 СЗ 2 20 км 9/0
[Cc]
+22.9 +12.6 52 +26 +34 жарко 1023.9 1010.0
12 14.09 СЗ 3 20 км 10/6 600 м
[Cb calv Ac und]
+21.5 +12.9 58 +24 +25 комфорт 1024.1 1010.1
15 14.09 С 3 20 км ясно +20.2 +4.0 34 +21 +22 комфорт 1024.1 1010.5
18 14.09 С 1 10 км ясно +16.7 +4.6 45 +18 +18 1025.6 1011.4 +25.0
21 14.09 С 2 10 км 8/0
[Ci fib]
+14.3 +3.6 49 +14 +14 1027.0 1012.6
00 15.09 СЗ 1 10 км 4/0
[Ci fib]
+9.9 +2.7 61 +10 +10 1027.5 1012.9
03 15.09 штиль 0 10 км 6/0
[Ci fib]
+6.1 +2.4 77 +5 +5 1027.7 1013.0
06 15.09 штиль 0 20 км 8/0
[Ci fib]
+10.5 +5.0 69 +10 +13 1028.0 1013.4 +5.2
09 15.09 штиль 0 20 км ясно +20.1 +3.4 33 +20 +33 опасность
простуды
1026.6 1012.5
12 15.09 СЗ 2 20 км 4/0
[Ci fib]
+22.5 +1.9 26 +22 +30 комфорт 1024.2 1010.2
15 15.09 СЗ 2 20 км 6/0
[Ci fib]
+22.5 +3.2 28 +22 +23 комфорт 1022.1 1008.1
18 15.09 штиль 0 10 км 8/0
[Ci fib]
+16.3 +4.6 46 +16 +16 1021.1 1006.9 +23.5
21 15.09 штиль 0 10 км 6/0
[Ci fib]
+10.1 +2.9 61 +10 +10 1020.1 1005.5
00 16.09 штиль 0 10 км 4/0
[Ci fib]
+7.5 +3.2 74 +7 +7 1019.0 1004.4
03 16.09 штиль 0 10 км 6/0
[Ci fib]
+6.5 +4.2 85 +6 +6 1017.7 1003.0
06 16.09 штиль 0 20 км 3/0
[Ci fib]
+12.3 +5.1 61 +12 +15 1017.2 1002.8 +5.5
09 16.09 СЗ 3 20 км 1/0
[Ac trans]
+23.9 +6.7 33 +24 +32 комфорт 1015.7 1001.7
12 16.09 СЗ 3 20 км 1/0
[Ac trans]
+26.9 +4.8 24 +26 +32 жарко 1013.1 999.5
15 16.09 СЗ 4 20 км 1/0
[Ac trans]
+26.7 +5.3 25 +26 +26 жарко 1011.5 997.9
18 16.09 штиль 0 10 км ясно +19.2 +9.7 54 +20 +20 1011.8 997.9 +27.9
21 16.09 штиль 0 10 км 9/0
[Ac trans]
+15.3 +8.6 64 +15 +15 1012.0 997.9
00 17.09 штиль 0 10 км 9/0
[Ac trans]
+13.5 +8.5 72 +13 +13 1011.8 997.6
03 17.09 СЗ 2 10 км 10/0
[Ac und]
+16.0 +13.5 85 +16 +16 1011.9 997.8
06 17.09 СЗ 2 10 км слаб. ливневой дождь 10/8 600 м
[Cb calv Ac und]
+12.6 +11.4 92 +12 +12 1012.7 998.5 +12.5 1
09 17.09 З 2 20 км {ливн. осадки} 9/4 600 м
[Cb calv Ac trans]
+16.3 +10.0 66 +16 +19 1012.8 998.7
12 17.09 З 2 20 км {ливн. осадки} 10/6 600 м
[Cb calv Ac und]
+17.4 +8.5 56 +18 +19 1012.3 998.3
15 17.09 З 2 20 км 9/6 600 м
[Cb calv Ac trans]
+14.9 +9.0 68 +15 +15 1011.5 997.4
18 17.09 штиль 0 10 км {ливн. осадки} 10/5 600 м
[Cb calv Ac und]
+13.2 +11.3 88 +13 +13 1010.9 996.7 +18.1 1
21 17.09 штиль 0 10 км {ливн. осадки} 6/3 600 м
[Cb calv Ac trans]
+11.9 +10.4 91 +11 +11 1009.9 995.6
00 18.09 штиль 0 10 км {ливн. осадки} 9/4 600 м
[Cb calv Ac trans]
+11.3 +10.2 93 +11 +11 1007.9 993.7
03 18.09 СЗ 2 10 км 10/6 600 м
[Cb calv Ac und]
+12.5 +10.7 89 +12 +12 1007.8 993.6
06 18.09 З 2 20 км 6/1 600 м
[Cb calv Ac trans]
+13.1 +9.2 77 +12 +14 1009.8 995.6 +10.1 0.4
09 18.09 СЗ 3 20 км 9/3 600 м
[Cb calv Ac trans]
+13.5 +4.6 55 +13 +15 1012.1 997.9
12 18.09 СЗ 5
{14}
20 км 4/3 1000 м
[Cu hum Ac trans Ci sp]
+17.5 -0.5 29 +17 +20 1012.5 998.5
15 18.09 СЗ 5
{14}
20 км 1/1 1000 м
[Cu hum]
+15.3 +0.6 37 +14 +15 1015.1 1000.8
18 18.09 З 3
{14}
10 км 3/0
[Ac trans]
+12.7 +2.5 50 +12 +12 1017.7 1003.3 +18.1
21 18.09 З 3 10 км ясно +11.8 +5.6 66 +10 +10 1019.5 1005.1
00 19.09 СЗ 2 10 км ясно +10.1 +5.0 71 +9 +9 1020.6 1006.0
03 19.09 Ю 1 10 км ясно +7.6 +3.6 76 +7 +7 1020.7 1006.0
06 19.09 З 2 20 км ясно +10.5 +3.4 61 +9 +12 1022.0 1007.4 +7.0
09 19.09 З 2 20 км 4/4 1000 м
[Cu med, cong]
+15.5 +2.7 42 +16 +21 1021.7 1007.5
12 19.09 З 3 20 км 8/8 600 м
[Cb calv]
+17.5 -0.5 29 +18 +19 1020.7 1006.5
15 19.09 СЗ 3 20 км 4/0
[Ac trans Ci sp]
+15.3 +3.2 44 +15 +15 1020.6 1006.4
18 19.09 штиль 0 10 км 6/0
[Ci fib]
+11.1 +4.6 64 +11 +11 1021.4 1006.9 +18.6
21 19.09 штиль 0 10 км 4/0
[Ci sp]
+7.3 +3.2 75 +7 +7 1022.1 1007.4
00 20.09 штиль 0 10 км 9/0
[Ac trans]
+5.7 +3.0 83 +5 +5 1022.0 1007.2
03 20.09 штиль 0 10 км 6/0
[Ac trans]
+5.1 +3.2 88 +4 +4 1021.5 1006.6
06 20.09 С 2 20 км 8/3 600 м
[Cb calv Ac trans Ci sp]
+9.7 +4.3 69 +8 +9 1021.4 1006.8 +4.5
09 20.09 СЗ 2 20 км {ливн. осадки} 4/3 1000 м
[Cu hum Ac trans]
+13.1 +3.6 52 +13 +18 1021.3 1006.8

 

Местоположение метеостанции Рыбница (Молдова): широта 47.77 долгота 29.02 высота над уровнем моря 119 м.

В архиве по умолчанию представлена погода в Рыбнице за последнюю неделю. Архивные данные за месяц целиком и за предыдущие месяцы, начиная с января 2011 года, Вы можете получить, выбрав интересующий диапазон дат из раскрывающегося списка и нажав кнопку "Ввод!".


*Определитесь, кто Вы:
робот инопланетянин человек

Внимание! Время в таблицах - всемирное. Для получения местного времени необходимо прибавить поправку, которая равна 2 ч.

Смотрите также архив погоды в соседних городах и на ближайших метеорологических станциях:

Погода в Каменке (Молдова) (37 км)
Погода в Дубоссарах (Молдова) (55 км)
Погода в Бравичах (Молдова) (63 км)
Погода в Сороках (Молдова) (72 км)
Погода в Бельцах (Молдова) (80 км)
Погода в Балцате (Молдова) (80 км)
Погода в Затишье (Одесская область, Украина) (81 км)
Погода в Кишиневе (Молдова) (83 км)
Погода в Корнестах (Молдова) (86 км)
Погода в Кодрах (Молдова) (90 км)

Пояснения к столбцам:

Ветер - указаны скорость ветра в м/с - средняя за 10 мин, порывы в срок и между сроками (в фигурных скобках) и направление, откуда дует ветер: С - северный, СВ - северо-восточный, В - восточный, ЮВ - юго-восточный, Ю - южный, ЮЗ - юго-западный, З - западный, СЗ - северо-западный.
Видимость - горизонтальная дальность видимости в метрах или километрах. При видимости от 1 до 10 км при отсутствии осадков обычно наблюдается дымка, при ухудшении видимости до 1 км и менее - туман. В сухую погоду видимость может ухудшаться дымом, пылью или мглою.
Явления - указаны атмосферные явления, наблюдавшиеся в срок или в последний час перед сроком; фигурными скобками обозначены явления, наблюдавшиеся между сроками (за 1-3 часа до срока); квадратными скобками обозначены град или гололедные отложения с указанием их диаметра в мм.
Облачность - указаны через наклонную черту общая и нижняя облачность в баллах и высота нижней границы облаков в метрах; квадратными скобками обозначены формы облаков: Ci - перистые, Cs - перисто-слоистые, Cc - перисто-кучевые, Ac - высококучевые, As - высокослоистые, Sc - слоисто-кучевые, Ns - слоисто-дождевые, Cu - кучевые, Cb - кучево-дождевые. Подробнее классификацию облаков см. в Атласе облаков (PDF).
T - Температура воздуха - температура, измеренная на высоте 2 м над землей.
Td - Температура точки росы - температура, при понижении до которой содержащийся в воздухе водяной пар достигнет насыщения.
f - Относительная влажность воздуха - влажноcть воздуха, измеренная на высоте 2 м над землей.
Te - Эффективная температура - температура, которую ощущает одетый по сезону человек в тени. Характеристика душности погоды. При расчете учитывается влияние влажности воздуха и скорости ветра на теплоощущения человека.
Tes - Эффективная температура на солнце - температура, которую ощущает человек, с поправкой на солнечный нагрев. Характеристика знойности погоды. Зависит от высоты солнца над горизонтом, облачности и скорости ветра. Ночью, в пасмурную погоду, а также при ветре 12 м/с и более поправка равна нулю.
P - Атмосферное давление - приведенное к уровню моря атмосферное давление.
Po - Атмосферное давление - измеренное на уровне метеостанции атмосферное давление.
Tmin - Минимальная температура - минимум температуры воздуха на высоте 2 м над землей.
Tmax - Максимальная температура - максимум температуры воздуха на высоте 2 м над землей.
R - Количество осадков - Количество выпавших осадков за период времени, мм. При наведении курсора мыши на число - период времени, за который выпало указанное количество осадков.
R24 - Количество осадков - Количество выпавших осадков за 24 часа, мм.
S - Снежный покров - Высота снежного покрова, см. При наведении курсора мыши на число - состояние снежного покрова и степень покрытия местности в баллах.